Weather History for LFBP - December, 2012

Change the Weather History Date:

Wednesday, December 12, 2012

  Actual Average Record
Temperature  
Mean Temperature 33 °F -  
Max Temperature 42 °F 50 °F 66 °F (1996)
Min Temperature 24 °F 35 °F 24 °F (2012)
Degree Days  
Heating Degree Days 32    
Moisture  
Dew Point 28 °F    
Average Humidity 81    
Maximum Humidity 100    
Minimum Humidity 49    
Precipitation  
Precipitation 0.00 in - - ()
Sea Level Pressure  
Sea Level Pressure 29.98 in    
Wind  
Wind Speed 3 mph ()    
Max Wind Speed 7 mph    
Max Gust Speed -    
Visibility 6.0 miles    
Events      
Averages and records for this station are not official NWS values.
T = Trace of Precipitation, MM = Missing Value Source: Averaged Metar Reports

Daily Weather History Graph

Daily Weather History Graph

Search for Another Location

Airport or City:

Trip Planner

Search our weather history database for the weather conditions in past years. The results will help you decide how hot, cold, wet, or windy it might be!

Date:

Astronomy

Dec. 12, 2012 Rise Set
Actual Time 8:25 AM CET 5:25 PM CET
Civil Twilight 7:52 AM CET 5:58 PM CET
Nautical Twilight 7:16 AM CET 6:34 PM CET
Astronomical Twilight 6:41 AM CET 7:09 PM CET
Moon 7:11 AM CET (12/12) 4:48 PM CET (12/12)
Length of Visible Light 10h 05m
Length of Day
9h 00m
Waning Crescent, 1% of the Moon is Illuminated
Dec 12
Waning Crescent
Dec 13
New
Dec 20
First Quarter
Dec 28
Full
Jan 5
Last Quarter

Hourly Weather History & Observations

Time (CET) Temp. Windchill Dew Point Humidity Pressure Visibility Wind Dir Wind Speed Gust Speed Precip Events Conditions
12:00 AM 32.0 °F 27.5 °F 28.4 °F 87% 30.18 in 6.2 mi ESE 4.6 mph - N/A   Unknown
12:30 AM 30.2 °F 24.3 °F 28.4 °F 93% 30.15 in 6.2 mi East 5.8 mph - N/A   Unknown
1:00 AM 30.2 °F 24.3 °F 28.4 °F 93% 30.15 in 6.2 mi East 5.8 mph - N/A   Unknown
1:30 AM 30.2 °F 23.4 °F 28.4 °F 93% 30.15 in 6.2 mi East 6.9 mph - N/A   Unknown
2:00 AM 30.2 °F 25.4 °F 28.4 °F 93% 30.12 in 6.2 mi East 4.6 mph - N/A   Unknown
2:30 AM 30.2 °F 26.7 °F 28.4 °F 93% 30.12 in 6.2 mi East 3.5 mph - N/A   Unknown
3:00 AM 30.2 °F 24.3 °F 26.6 °F 86% 30.12 in 6.2 mi East 5.8 mph - N/A   Unknown
3:30 AM 28.4 °F - 26.6 °F 93% 30.09 in 6.2 mi ESE 2.3 mph - N/A   Unknown
4:00 AM 26.6 °F - 24.8 °F 93% 30.09 in 6.2 mi Variable 1.2 mph - N/A   Unknown
4:30 AM 26.6 °F - 24.8 °F 93% 30.09 in 6.2 mi Calm Calm - N/A   Unknown
5:00 AM 26.6 °F - 24.8 °F 93% 30.06 in 5.0 mi SSE 2.3 mph - N/A   Unknown
5:30 AM 26.6 °F - 24.8 °F 93% 30.06 in 5.0 mi East 2.3 mph - N/A   Unknown
6:00 AM 26.6 °F - 24.8 °F 93% 30.06 in 5.0 mi ENE 2.3 mph - N/A   Unknown
6:30 AM 24.8 °F - 24.8 °F 100% 30.06 in - Calm Calm - N/A   Clear
7:00 AM 24.8 °F 19.1 °F 24.8 °F 100% 30.04 in - East 4.6 mph - N/A   Clear
7:30 AM 24.8 °F - 24.8 °F 100% 30.04 in - SE 2.3 mph - N/A   Clear
8:00 AM 24.8 °F - 23.0 °F 93% 30.04 in - Variable 1.2 mph - N/A   Clear
8:30 AM 24.8 °F 20.5 °F 23.0 °F 93% 30.04 in - SE 3.5 mph - N/A   Clear
9:00 AM 26.6 °F 21.2 °F 24.8 °F 93% 30.04 in - ESE 4.6 mph - N/A   Clear
9:30 AM 28.4 °F 22.2 °F 26.6 °F 93% 30.01 in - ESE 5.8 mph - N/A   Clear
10:00 AM 30.2 °F 25.4 °F 26.6 °F 86% 30.01 in - SE 4.6 mph - N/A   Clear
10:30 AM 32.0 °F 28.7 °F 26.6 °F 80% 30.01 in - SSE 3.5 mph - N/A   Clear
11:00 AM 33.8 °F 30.8 °F 28.4 °F 81% 30.01 in - SSE 3.5 mph - N/A   Clear
11:30 AM 37.4 °F - 26.6 °F 65% 30.01 in - Variable 1.2 mph - N/A   Clear
12:00 PM 39.2 °F - 28.4 °F 65% 29.98 in - Variable 1.2 mph - N/A   Clear
12:30 PM 41.0 °F - 28.4 °F 61% 29.98 in - Variable 2.3 mph - N/A   Clear
1:00 PM 41.0 °F - 26.6 °F 57% 29.98 in - Variable 2.3 mph - N/A   Clear
1:30 PM 42.8 °F - 28.4 °F 57% 29.95 in - Variable 2.3 mph - N/A   Clear
2:00 PM 42.8 °F - 28.4 °F 57% 29.95 in - Calm Calm - N/A   Clear
2:30 PM 42.8 °F - 26.6 °F 53% 29.92 in - Variable 2.3 mph - N/A   Clear
3:00 PM 42.8 °F - 28.4 °F 57% 29.92 in - East 2.3 mph - N/A   Clear
3:30 PM 42.8 °F - 24.8 °F 49% 29.89 in - Variable 1.2 mph - N/A   Clear
4:00 PM 42.8 °F - 28.4 °F 57% 29.89 in - Variable 1.2 mph - N/A   Clear
4:30 PM 42.8 °F - 30.2 °F 61% 29.89 in 6.2 mi NE 2.3 mph - N/A   Mostly Cloudy
5:00 PM 41.0 °F 39.0 °F 32.0 °F 70% 29.89 in - NE 3.5 mph - N/A   Clear
5:30 PM 41.0 °F 39.0 °F 33.8 °F 76% 29.89 in - ENE 3.5 mph - N/A   Clear
6:00 PM 39.2 °F 35.9 °F 33.8 °F 81% 29.89 in - East 4.6 mph - N/A   Clear
6:30 PM 37.4 °F 34.9 °F 32.0 °F 81% 29.89 in - East 3.5 mph - N/A   Clear
7:00 PM 35.6 °F - 32.0 °F 87% 29.89 in - Variable 2.3 mph - N/A   Clear
7:30 PM 35.6 °F - 32.0 °F 87% 29.89 in - Variable 2.3 mph - N/A   Clear
8:00 PM 35.6 °F 32.8 °F 32.0 °F 87% 29.86 in - East 3.5 mph - N/A   Clear
8:30 PM 35.6 °F 32.8 °F 32.0 °F 87% 29.86 in - SE 3.5 mph - N/A   Clear
9:00 PM 35.6 °F 32.8 °F 30.2 °F 81% 29.86 in - SE 3.5 mph - N/A   Clear
9:30 PM 35.6 °F 31.7 °F 32.0 °F 87% 29.86 in 6.2 mi SE 4.6 mph - N/A   Unknown
10:00 PM 35.6 °F 30.7 °F 32.0 °F 87% 29.86 in 6.2 mi SE 5.8 mph - N/A   Unknown
10:30 PM 35.6 °F 30.7 °F 30.2 °F 81% 29.83 in 6.2 mi SE 5.8 mph - N/A   Unknown
11:00 PM 35.6 °F 31.7 °F 30.2 °F 81% 29.83 in 6.2 mi SSE 4.6 mph - N/A   Unknown
11:30 PM 33.8 °F - 28.4 °F 81% 29.83 in 6.2 mi East 2.3 mph - N/A   Unknown